Weather History for Westhampton Beach, NY

Change the Weather History Date:

Monday, December 16, 2013

  Actual Average Record
Temperature  
Mean Temperature 21 °F -  
Max Temperature 32 °F 43 °F 55 °F (2011)
Min Temperature 10 °F 25 °F 10 °F (2004)
Degree Days  
Heating Degree Days 44    
Moisture  
Dew Point 11 °F    
Average Humidity 55    
Maximum Humidity 77    
Minimum Humidity 38    
Precipitation  
Precipitation 0.00 in - - ()
Sea Level Pressure  
Sea Level Pressure 30.06 in    
Wind  
Wind Speed 10 mph (West)    
Max Wind Speed 18 mph    
Max Gust Speed 28 mph    
Visibility 10 miles    
Events      
Averages and records for this station are not official NWS values.
T = Trace of Precipitation, MM = Missing Value Source: NWS Daily Summary

Daily Weather History Graph

Daily Weather History Graph

Search for Another Location

Airport:

Trip Planner

Search our weather history database for the weather conditions in past years. The results will help you decide how hot, cold, wet, or windy it might be!

Date:

Astronomy

Dec. 16, 2013 Rise Set
Actual Time 7:08 AM EST 4:23 PM EST
Civil Twilight 6:37 AM EST 4:54 PM EST
Nautical Twilight 6:03 AM EST 5:29 PM EST
Astronomical Twilight 5:29 AM EST 6:02 PM EST
Moon 4:12 PM EST (12/16) 6:14 AM EST (12/16)
Length of Visible Light 10h 17m
Length of Day
9h 15m
Full, 100% of the Moon is Illuminated
Dec 16
Full
Dec 17
Full
Dec 25
Last Quarter
Jan 1
New
Jan 7
First Quarter

Hourly Weather History & Observations

Time (EST) Temp. Windchill Dew Point Humidity Pressure Visibility Wind Dir Wind Speed Gust Speed Precip Events Conditions
12:53 AM 32.0 °F 23.6 °F 19.0 °F 59% 29.84 in 10.0 mi West 10.4 mph - N/A   Clear
1:53 AM 30.9 °F 23.5 °F 19.0 °F 61% 29.86 in 10.0 mi WSW 8.1 mph - N/A   Scattered Clouds
2:53 AM 28.9 °F 21.9 °F 19.0 °F 67% 29.88 in 10.0 mi WSW 6.9 mph - N/A   Clear
3:53 AM 30.9 °F 21.7 °F 19.9 °F 64% 29.88 in 10.0 mi West 11.5 mph - N/A   Clear
4:53 AM 32.0 °F 22.5 °F 19.0 °F 59% 29.90 in 10.0 mi West 12.7 mph - N/A   Overcast
5:53 AM 30.9 °F 20.2 °F 12.9 °F 47% 29.94 in 10.0 mi WNW 15.0 mph 27.6 mph N/A   Scattered Clouds
6:53 AM 28.9 °F 19.2 °F 10.9 °F 47% 29.97 in 10.0 mi West 11.5 mph - N/A   Clear
7:53 AM 28.9 °F 19.8 °F 10.9 °F 47% 29.99 in 10.0 mi West 10.4 mph - N/A   Clear
8:53 AM 30.0 °F 19.5 °F 12.9 °F 49% 30.03 in 10.0 mi NW 13.8 mph - N/A   Scattered Clouds
9:53 AM 30.0 °F 20.5 °F 12.0 °F 47% 30.06 in 10.0 mi WNW 11.5 mph 23.0 mph N/A   Scattered Clouds
10:53 AM 30.0 °F 19.1 °F 10.9 °F 45% 30.06 in 10.0 mi West 15.0 mph - N/A   Scattered Clouds
11:53 AM 32.0 °F 20.5 °F 10.0 °F 40% 30.04 in 10.0 mi WNW 18.4 mph 23.0 mph N/A   Clear
12:53 PM 32.0 °F 22.1 °F 10.0 °F 40% 30.04 in 10.0 mi NW 13.8 mph - N/A   Scattered Clouds
1:53 PM 32.0 °F 23.0 °F 9.0 °F 38% 30.05 in 10.0 mi WNW 11.5 mph - N/A   Partly Cloudy
2:53 PM 30.9 °F 20.2 °F 9.0 °F 40% 30.08 in 10.0 mi NW 15.0 mph 20.7 mph N/A   Partly Cloudy
3:53 PM 30.0 °F 21.1 °F 8.1 °F 40% 30.11 in 10.0 mi West 10.4 mph - N/A   Mostly Cloudy
4:53 PM 27.0 °F 20.5 °F 8.1 °F 45% 30.14 in 10.0 mi West 5.8 mph - N/A   Clear
5:53 PM 21.9 °F 17.2 °F 8.1 °F 55% 30.17 in 10.0 mi West 3.5 mph - N/A   Clear
6:53 PM 19.0 °F 12.3 °F 9.0 °F 65% 30.21 in 10.0 mi West 4.6 mph - N/A   Clear
7:53 PM 15.1 °F - 6.1 °F 68% 30.22 in 10.0 mi Calm Calm - N/A   Clear
8:53 PM 12.9 °F - 5.0 °F 71% 30.23 in 10.0 mi Calm Calm - N/A   Clear
9:53 PM 12.0 °F - 5.0 °F 73% 30.24 in 10.0 mi Calm Calm - N/A   Clear
10:53 PM 10.9 °F - 5.0 °F 77% 30.24 in 10.0 mi Calm Calm - N/A   Clear
11:53 PM 10.0 °F - 3.9 °F 76% 30.25 in 10.0 mi Calm Calm - N/A   Clear